Terminal Aerodrome Forecast
Issued by NWS Wilmington, OH

Current Version | Previous Version | Graphics & Text | Print | Product List | Glossary On
Versions: 1 2 3 4 5 6 7 8 9 10 11 12 13 14 15 16 17 18 19 20
000
FTUS41 KILN 300200 AAA
TAFDAY
TAF AMD
KDAY 300242Z 3003/3024 VRB04KT P6SM SCT025 BKN035
      TEMPO 3003/3007 5SM BR BKN025
     FM300700 24005KT 5SM BR BKN018
     FM301300 24010KT P6SM SCT018 BKN035
     FM301700 25013G22KT P6SM BKN035=

USA.gov is the U.S. government's official web portal to all federal, state and local government web resources and services.